Milford, UT

3:29 PM MDT on April 23, 2018 (GMT -0600)
Milford Municipal

Weather History for KMLF - November, 2011

Change the Weather History Date:

Monday, November 7, 2011

  Actual Average Record
Temperature  
Mean Temperature 30 °F -  
Max Temperature 36 °F 51 °F 73 °F (2006)
Min Temperature 24 °F 25 °F 14 °F (1996)
Degree Days  
Heating Degree Days 35    
Moisture  
Dew Point 28 °F    
Average Humidity 91    
Maximum Humidity 100    
Minimum Humidity 73    
Precipitation  
Precipitation 0.06 in - - ()
Sea Level Pressure  
Sea Level Pressure 30.01 in    
Wind  
Wind Speed 6 mph (North)    
Max Wind Speed 20 mph    
Max Gust Speed 26 mph    
Visibility 4 miles    
Events Fog , Snow    
Averages and records for this station are not official NWS values.
T = Trace of Precipitation, MM = Missing Value Source: NWS Daily Summary

Daily Weather History Graph

Daily Weather History Graph

Search for Another Location

Airport or City:

Astronomy

Nov. 07, 2011 Rise Set
Actual Time 7:04 AM MST 5:26 PM MST
Civil Twilight 6:36 AM MST 5:53 PM MST
Nautical Twilight 6:05 AM MST 6:25 PM MST
Astronomical Twilight 5:34 AM MST 6:56 PM MST
Moon 3:37 PM MST (11/7) 4:12 AM MST (11/7)
Length of Visible Light 11h 17m
Length of Day
10h 21m
Waxing Gibbous, 92% of the Moon is Illuminated
Nov 7
Waxing Gibbous
Nov 10
Full
Nov 18
Last Quarter
Nov 24
New
Dec 2
First Quarter

Hourly Weather History & Observations

Time (MST) Temp. Windchill Dew Point Humidity Pressure Visibility Wind Dir Wind Speed Gust Speed Precip Events Conditions
12:10 AM 26.6 °F - 24.8 °F 93% 29.95 in 1.8 mi Calm Calm - N/A   Partly Cloudy
12:15 AM 26.6 °F - 24.8 °F 93% 29.95 in 1.2 mi Calm Calm - N/A   Partly Cloudy
12:20 AM 26.6 °F 22.6 °F 24.8 °F 93% 29.95 in 0.8 mi ENE 3.5 mph - N/A   Mist
12:46 AM 26.6 °F - 24.8 °F 93% 29.95 in 1.2 mi Calm Calm - N/A   Scattered Clouds
12:48 AM 26.6 °F - 24.8 °F 93% 29.95 in 1.8 mi Calm Calm - N/A   Scattered Clouds
12:52 AM 26.1 °F - 24.1 °F 92% 29.96 in 3.0 mi Calm Calm - N/A   Partly Cloudy
1:52 AM 25.0 °F - 23.0 °F 92% 29.98 in 10.0 mi Calm Calm - N/A   Scattered Clouds
2:52 AM 25.0 °F 19.3 °F 24.1 °F 96% 29.98 in 10.0 mi NNW 4.6 mph - N/A   Mostly Cloudy
2:58 AM 24.8 °F - 23.0 °F 93% 29.95 in 10.0 mi Calm Calm - N/A   Mostly Cloudy
3:08 AM 24.8 °F 20.5 °F 24.8 °F 100% 29.95 in 1.5 mi East 3.5 mph - N/A   Mostly Cloudy
3:11 AM 26.6 °F - 24.8 °F 93% 29.95 in 0.8 mi Calm Calm - N/A   Mostly Cloudy
3:52 AM 26.1 °F - 25.0 °F 96% 29.99 in 0.5 mi Calm Calm - N/A Fog Light Freezing Fog
4:17 AM 26.6 °F 21.2 °F 24.8 °F 93% 29.95 in 1.5 mi North 4.6 mph - N/A   Overcast
4:20 AM 26.6 °F 21.2 °F 24.8 °F 93% 29.95 in 2.0 mi North 4.6 mph - N/A   Overcast
4:27 AM 26.6 °F 20.0 °F 24.8 °F 93% 29.95 in 5.0 mi North 5.8 mph - N/A   Overcast
4:52 AM 27.0 °F 20.5 °F 25.0 °F 92% 29.99 in 8.0 mi North 5.8 mph - N/A   Overcast
5:04 AM 26.6 °F 20.0 °F 26.6 °F 100% 29.95 in 1.8 mi North 5.8 mph - N/A   Overcast
5:07 AM 26.6 °F 21.2 °F 26.6 °F 100% 29.95 in 1.2 mi North 4.6 mph - N/A   Overcast
5:38 AM 28.4 °F 23.3 °F 26.6 °F 93% 29.95 in 0.8 mi North 4.6 mph - 0.00 in Snow Light Snow
5:57 AM 28.4 °F 21.2 °F 26.6 °F 93% 29.95 in 1.5 mi North 6.9 mph - 0.00 in Snow Light Snow
6:09 AM 28.4 °F 21.2 °F 26.6 °F 93% 29.95 in 2.0 mi North 6.9 mph - 0.00 in Snow Light Snow
6:21 AM 28.4 °F 22.2 °F 26.6 °F 93% 29.95 in 3.0 mi North 5.8 mph - 0.00 in Snow Light Snow
6:44 AM 28.4 °F 21.2 °F 26.6 °F 93% 29.96 in 2.5 mi North 6.9 mph - 0.00 in Snow Light Snow
6:52 AM 28.9 °F 21.9 °F 28.0 °F 96% 30.00 in 4.0 mi North 6.9 mph - 0.01 in Snow Light Snow
7:05 AM 28.4 °F 21.2 °F 28.4 °F 100% 29.97 in 6.0 mi NNE 6.9 mph - 0.00 in Snow Light Snow
7:52 AM 30.0 °F 22.4 °F 28.9 °F 96% 30.02 in 8.0 mi North 8.1 mph - 0.00 in   Overcast
8:05 AM 30.2 °F 23.4 °F 28.4 °F 93% 29.99 in 8.0 mi North 6.9 mph - N/A   Overcast
8:22 AM 30.2 °F 22.6 °F 28.4 °F 93% 29.99 in 2.0 mi North 8.1 mph - 0.00 in Snow Light Snow
8:27 AM 30.2 °F 22.6 °F 28.4 °F 93% 29.99 in 1.8 mi North 8.1 mph - 0.00 in Snow Light Snow
8:33 AM 30.2 °F 22.6 °F 28.4 °F 93% 30.00 in 1.2 mi North 8.1 mph - 0.00 in Snow Light Snow
8:50 AM 30.2 °F 21.3 °F 28.4 °F 93% 30.00 in 1.5 mi North 10.4 mph - 0.00 in Snow Light Snow
8:52 AM 30.9 °F 22.2 °F 30.0 °F 96% 30.03 in 1.5 mi North 10.4 mph - 0.00 in Snow Light Snow
9:08 AM 30.2 °F 21.9 °F 30.2 °F 100% 30.00 in 1.8 mi North 9.2 mph - 0.00 in Snow Light Snow
9:19 AM 30.2 °F 21.3 °F 30.2 °F 100% 30.01 in 1.2 mi NNE 10.4 mph - 0.00 in Snow Light Snow
9:25 AM 30.2 °F 21.9 °F 30.2 °F 100% 30.01 in 1.2 mi North 9.2 mph - 0.00 in Snow Light Snow
9:42 AM 30.2 °F 21.3 °F 30.2 °F 100% 30.01 in 1.0 mi NNE 10.4 mph - 0.01 in Snow Light Snow
9:52 AM 30.9 °F 22.2 °F 30.0 °F 96% 30.05 in 1.2 mi North 10.4 mph - 0.01 in Snow Light Snow
10:03 AM 32.0 °F 23.6 °F 30.2 °F 93% 30.01 in 1.5 mi North 10.4 mph - 0.00 in Snow Light Snow
10:10 AM 32.0 °F 22.5 °F 30.2 °F 93% 30.01 in 1.8 mi North 12.7 mph - 0.00 in Snow Light Snow
10:15 AM 32.0 °F 23.0 °F 30.2 °F 93% 30.01 in 1.8 mi North 11.5 mph - 0.00 in Snow Light Snow
10:20 AM 32.0 °F 22.5 °F 30.2 °F 93% 30.01 in 2.0 mi North 12.7 mph - 0.00 in Snow Light Snow
10:27 AM 32.0 °F 22.5 °F 30.2 °F 93% 30.01 in 2.0 mi North 12.7 mph - 0.00 in Snow Light Snow
10:51 AM 32.0 °F 22.5 °F 30.0 °F 92% 30.06 in 1.5 mi North 12.7 mph - 0.00 in Snow Light Snow
11:08 AM 32.0 °F 21.6 °F 30.2 °F 93% 30.01 in 1.8 mi North 15.0 mph - 0.01 in Snow Light Snow
11:17 AM 32.0 °F 21.2 °F 30.2 °F 93% 30.01 in 1.8 mi North 16.1 mph - 0.01 in Snow Light Snow
11:20 AM 32.0 °F 21.2 °F 30.2 °F 93% 30.01 in 2.0 mi North 16.1 mph 23.0 mph 0.01 in Snow Light Snow
11:41 AM 32.0 °F 21.2 °F 30.2 °F 93% 30.01 in 4.0 mi North 16.1 mph 25.3 mph 0.01 in   Overcast
11:50 AM 32.0 °F 20.1 °F 30.2 °F 93% 30.01 in 2.5 mi North 19.6 mph 26.5 mph 0.01 in Snow Light Snow
11:52 AM 32.0 °F 21.2 °F 30.0 °F 92% 30.06 in 2.0 mi NNE 16.1 mph 26.5 mph 0.01 in Snow Light Snow
11:54 AM 32.0 °F 22.5 °F 30.2 °F 93% 30.01 in 1.5 mi NNE 12.7 mph 25.3 mph 0.00 in Snow Light Snow
11:59 AM 32.0 °F 22.5 °F 30.2 °F 93% 30.01 in 1.0 mi NNE 12.7 mph - 0.00 in Snow Light Snow
12:09 PM 32.0 °F 23.0 °F 30.2 °F 93% 30.01 in 1.5 mi NNE 11.5 mph - 0.00 in Snow Light Snow
12:15 PM 33.8 °F 24.3 °F 30.2 °F 87% 30.01 in 1.2 mi NNE 13.8 mph - 0.00 in Snow Light Snow
12:27 PM 33.8 °F 24.8 °F 30.2 °F 87% 30.01 in 1.5 mi NNE 12.7 mph - 0.00 in Snow Light Snow
12:29 PM 33.8 °F 24.8 °F 30.2 °F 87% 30.01 in 1.2 mi NNE 12.7 mph - 0.01 in Snow Light Snow
12:31 PM 33.8 °F 24.8 °F 30.2 °F 87% 30.01 in 0.8 mi NE 12.7 mph - 0.01 in Snow Light Snow
12:36 PM 32.0 °F 22.5 °F 30.2 °F 93% 30.01 in 0.5 mi NNE 12.7 mph - 0.02 in Fog , Snow Snow
12:43 PM 33.8 °F 25.8 °F 30.2 °F 87% 30.01 in 1.5 mi North 10.4 mph - 0.03 in Snow Light Snow
12:47 PM 33.8 °F 24.8 °F 30.2 °F 87% 30.01 in 3.0 mi NNE 12.7 mph - 0.03 in Snow Light Snow
12:52 PM 33.1 °F 23.9 °F 30.9 °F 92% 30.05 in 3.0 mi North 12.7 mph - 0.03 in Snow Light Snow
1:39 PM 33.8 °F 23.5 °F 30.2 °F 87% 30.01 in 9.0 mi North 16.1 mph 20.7 mph 0.00 in Snow Light Snow
1:52 PM 33.1 °F 23.4 °F 28.9 °F 85% 30.06 in 7.0 mi North 13.8 mph - 0.00 in Snow Light Snow
2:52 PM 36.0 °F 27.5 °F 30.9 °F 82% 30.06 in 10.0 mi NNE 12.7 mph - 0.00 in   Overcast
3:52 PM 36.0 °F 26.7 °F 28.9 °F 76% 30.08 in 10.0 mi NNE 15.0 mph - N/A   Overcast
4:52 PM 36.0 °F 26.3 °F 28.0 °F 73% 30.09 in 10.0 mi North 16.1 mph - N/A   Mostly Cloudy
5:52 PM 33.1 °F 25.5 °F 26.1 °F 75% 30.13 in 10.0 mi North 9.2 mph - N/A   Overcast
6:52 PM 30.9 °F 22.8 °F 25.0 °F 79% 30.16 in 10.0 mi NNW 9.2 mph - N/A   Mostly Cloudy
7:52 PM 28.0 °F 20.8 °F 24.1 °F 85% 30.18 in 10.0 mi North 6.9 mph - N/A   Mostly Cloudy
8:52 PM 28.9 °F 21.9 °F 24.1 °F 82% 30.19 in 10.0 mi NNW 6.9 mph - N/A   Overcast
9:52 PM 28.9 °F 22.8 °F 24.1 °F 82% 30.21 in 10.0 mi North 5.8 mph - N/A   Overcast
10:52 PM 30.9 °F 23.5 °F 24.1 °F 76% 30.21 in 10.0 mi NNW 8.1 mph - N/A   Overcast
11:52 PM 30.9 °F 24.3 °F 25.0 °F 79% 30.21 in 10.0 mi NNW 6.9 mph - N/A   Overcast